Flag for U.S.A. Weather past 2 weeks in Fremont, California, U.S.A.

Now
45 °F

Clear.


Feels Like: 45 °F
Forecast: 45 / 71 °F
Wind: No wind

Location: Moffett Field

Current Time: Mar 6, 2015 at 6:40:58 AM

Latest Report: Mar 6, 2015 at 5:56 AM


Visibility: 10 mi

Pressure: 30.30 "Hg

Humidity: 74%

Dew point: 37 °F

Location of FremontLocation

Historic Weather in Fremont — Graph

°F

Fremont temperature yesterday

Maximum temperature yesterday: 71 °F (at 2:56 PM)
Minimum temperature yesterday: 44 °F (at 3:56 AM)
Average temperature yesterday: 57 °F

Past Weeks' High & Low Weather Summary

 TemperatureHumidityPressure
High71 °F (Feb 21, 2:56 PM)97% (Mar 1, 3:56 AM)30.38 "Hg (Mar 1, 3:56 AM)
Low38 °F (Feb 24, 6:56 AM)17% (Feb 24, 11:56 AM)29.75 "Hg (Feb 28, 3:56 AM)
Average55 °F64%30.04 "Hg
* Reported Feb 19 4:56 AM — Mar 6 4:56 AM, Fremont, Weather by CustomWeather, © 2015

Note: Actual official high and low records may vary slightly from our data, if they occured in-between our weather recording intervals... More about our weather records

Advertising

Fremont weather history for previous 24 hours

 ConditionsComfort  
Time TempWeatherWind HumidityBarometerVisibility
4:56 AM
Fri, Mar 6
45 °FClear.No wind74%30.30 "Hg10 mi
3:56 AM45 °FClear.No wind74%30.29 "Hg10 mi
2:56 AM48 °FClear.No wind71%30.30 "Hg10 mi
1:56 AM50 °FClear.No wind66%30.30 "Hg10 mi
12:56 AM52 °FClear.No wind61%30.30 "Hg10 mi
11:56 PM
Thu, Mar 5
54 °FClear.No wind57%30.30 "Hg10 mi
10:56 PM53 °FClear.No wind56%30.31 "Hg10 mi
9:56 PM58 °FClear.3 mph50%30.31 "Hg10 mi
8:56 PM60 °FClear.5 mph44%30.29 "Hg10 mi
7:56 PM62 °FClear.5 mph43%30.29 "Hg10 mi
6:56 PM58 °FClear.5 mph62%30.28 "Hg10 mi
5:56 PM63 °FSunny.6 mph45%30.26 "Hg10 mi
4:56 PM67 °FSunny.7 mph36%30.26 "Hg10 mi
3:56 PM71 °FSunny.9 mph32%30.26 "Hg10 mi
2:56 PM71 °FSunny.6 mph31%30.27 "Hg10 mi
1:56 PM69 °FSunny.6 mph35%30.29 "Hg10 mi
12:56 PM67 °FSunny.7 mph37%30.31 "Hg10 mi
11:56 AM64 °FSunny.3 mph41%30.34 "Hg10 mi
10:56 AM61 °FSunny.5 mph48%30.35 "Hg10 mi
9:56 AM58 °FSunny.No wind56%30.36 "Hg10 mi
8:56 AM54 °FSunny.No wind62%30.35 "Hg10 mi
7:56 AM50 °FSunny.No wind68%30.34 "Hg10 mi
6:56 AM44 °FSunny.No wind76%30.31 "Hg10 mi
Weather by CustomWeather, © 2015

See weather overviewHow to use our weather pages